Location: Antichan
(42.9728°N, 0.6667°E)
Time: 16:44:12
(UTC+00:00)

Cosmos 2278 - Pass Details

Date: 15 August 2020
Orbit: 839 x 853 km, 71.1° (Epoch: 18 September)

Event Time Altitude Azimuth Distance (km) Brightness Sun altitude
Rises 20:13:24 0° 332° (NNW) 3,430 8.0 -13.0°
Reaches altitude 10° 20:15:53 10° 329° (NNW) 2,489 7.2 -13.4°
Maximum altitude 20:21:29 60° 251° (WSW) 972 4.2 -14.2°
Drops below altitude 10° 20:27:03 10° 172° (S) 2,465 5.7 -15.1°
Enters shadow 20:27:03 10° 172° (S) 2,465 5.7 -15.1°
